"Period start","avg(HW err(1)/warn(2) (#))","avg(Visibility (m))","avg(Weather code (#))","avg(Precip intensity (mm/h))","min(HW err(1)/warn(2) (#))","max(HW err(1)/warn(2) (#))","std(HW err(1)/warn(2) (#))","med(HW err(1)/warn(2) (#))","min(Visibility (m))","max(Visibility (m))","std(Visibility (m))","med(Visibility (m))","min(Weather code (#))","max(Weather code (#))","std(Weather code (#))","med(Weather code (#))","min(Precip intensity (mm/h))","max(Precip intensity (mm/h))","std(Precip intensity (mm/h))","med(Precip intensity (mm/h))"
2016-09-07 00:00:00,0,13744,51,0.11,0,0,0,0,11799,16056,1477,13840,51,51,0,51,0.05,0.20,0.04,0.10
2016-09-07 00:10:00,0,10909,51,0.68,0,0,0,0,7595,16243,2746,10694,51,52,0,51,0.05,1.50,0.45,0.70
2016-09-07 00:20:00,0,6977,52,2.47,0,0,0,0,3849,9694,2110,7340,52,52,0,52,1.05,4.70,1.03,2.30
2016-09-07 00:30:00,1,3126,53,4.60,0,2,1,2,2790,3587,288,3134,52,53,0,53,3.65,5.25,0.59,4.70
2016-09-07 00:40:00,2,4506,60,14.38,2,2,0,2,3765,5326,450,4504,52,62,4,62,7.25,28.25,7.54,11.75
2016-09-07 00:50:00,2,4757,62,13.75,2,2,0,2,4047,5566,439,4780,61,62,0,62,8.60,22.75,4.95,12.65
2016-09-07 01:00:00,1,6060,62,13.04,0,2,1,1,5064,6932,585,6108,61,62,0,62,8.10,24.20,5.06,11.75
2016-09-07 01:10:00,0,5792,59,7.52,0,0,0,0,2923,8136,1580,6218,53,61,4,61,5.80,9.05,1.10,7.68
2016-09-07 01:20:00,0,6936,58,4.62,0,0,0,0,5459,8405,963,7076,53,61,4,61,3.75,6.30,0.72,4.47
2016-09-07 01:30:00,0,11487,61,4.48,0,0,0,0,7243,13888,1944,12353,61,61,0,61,2.75,7.15,1.29,4.20
2016-09-07 01:40:00,0,10639,52,2.88,0,0,0,0,7447,12036,1204,11084,52,52,0,52,1.15,4.30,1.22,2.83
2016-09-07 01:50:00,0,9789,51,0.29,0,0,0,0,6406,18021,3908,7984,51,52,0,51,0.10,0.80,0.19,0.25
2016-09-07 02:00:00,0,5410,58,6.63,0,0,0,0,3073,8619,2004,5020,51,62,5,61,0.30,10.75,3.45,6.75
2016-09-07 02:10:00,1,5794,52,0.97,0,2,1,1,4867,6593,579,5822,52,52,0,52,0.40,2.20,0.47,0.85
2016-09-07 02:20:00,2,6456,51,0.49,2,2,0,2,5361,8577,904,6323,51,51,0,51,0.05,1.25,0.37,0.35
2016-09-07 02:30:00,2,10572,52,0.70,2,2,0,2,7703,13587,1943,10385,51,61,3,51,0.05,2.55,0.87,0.17
2016-09-07 02:40:00,2,18576,61,3.55,2,2,0,2,11753,26532,4476,17343,61,61,0,61,0.65,9.15,2.94,1.70
2016-09-07 02:50:00,2,27840,57,1.59,2,2,0,2,16123,37486,6491,29624,51,61,5,61,0.20,6.40,2.07,0.70
2016-09-07 03:00:00,2,22242,20,0.06,2,2,0,2,18825,27241,2798,21616,0,51,25,0,0.00,0.20,0.08,0.00
2016-09-07 03:10:00,1,43389,0,0.00,0,2,1,0,31482,50000,5385,43636,0,0,0,0,0.00,0.00,0.00,0.00
2016-09-07 03:20:00,0,48502,0,0.00,0,0,0,0,45180,50000,1779,49452,0,0,0,0,0.00,0.00,0.00,0.00
2016-09-07 03:30:00,0,30603,54,0.74,0,0,0,0,17036,46167,9054,29721,52,61,4,52,0.35,1.80,0.42,0.65
2016-09-07 03:40:00,0,18932,52,1.02,0,2,1,0,12789,31919,4867,18436,52,52,0,52,0.35,2.75,0.72,0.85
2016-09-07 03:50:00,2,10560,52,1.60,2,2,0,2,3427,17021,4360,12404,52,52,0,52,0.60,2.05,0.46,1.75
2016-09-07 04:00:00,2,6618,52,0.76,2,2,0,2,5268,8460,1131,6283,52,52,0,52,0.45,1.20,0.22,0.77
2016-09-07 04:10:00,2,4738,51,0.45,2,2,0,2,3631,7629,1090,4554,51,52,0,51,0.20,0.90,0.23,0.38
2016-09-07 04:20:00,2,4784,47,0.25,2,2,0,2,3542,6795,1031,4852,10,51,12,51,0.00,0.55,0.15,0.25
2016-09-07 04:30:00,2,6902,10,0.00,2,2,0,2,5245,8570,1133,6851,10,10,0,10,0.00,0.00,0.00,0.00
2016-09-07 04:40:00,2,4719,10,0.00,2,2,0,2,3407,6499,1006,4389,10,10,0,10,0.00,0.00,0.00,0.00
2016-09-07 04:50:00,1,4591,10,0.00,0,2,1,0,3559,6940,1060,4210,10,10,0,10,0.00,0.00,0.00,0.00
2016-09-07 05:00:00,0,6111,10,0.00,0,0,0,0,4442,9636,1518,5856,10,10,0,10,0.00,0.00,0.00,0.00
2016-09-07 05:10:00,0,7579,10,0.00,0,0,0,0,5685,10279,1466,7468,10,10,0,10,0.00,0.00,0.00,0.00
2016-09-07 05:20:00,1,8057,10,0.00,0,2,1,2,5127,13516,2596,7584,10,10,0,10,0.00,0.00,0.00,0.00
2016-09-07 05:30:00,1,6225,32,0.17,0,2,1,0,5275,9126,1116,5830,10,61,23,30,0.00,0.65,0.22,0.07
2016-09-07 05:40:00,0,7896,51,0.11,0,0,0,0,4856,9715,1354,7934,51,51,0,51,0.05,0.20,0.06,0.10
2016-09-07 05:50:00,0,8096,58,0.13,0,0,0,0,5143,12854,1908,7754,51,61,5,61,0.05,0.20,0.04,0.15
2016-09-07 06:00:00,0,11589,61,0.06,0,0,0,0,8607,13458,1364,11744,61,61,0,61,0.00,0.10,0.04,0.05
2016-09-07 06:10:00,1,9422,18,0.02,0,2,1,0,6976,12626,1659,9330,0,61,28,0,0.00,0.10,0.03,0.00
2016-09-07 06:20:00,2,10978,61,3.94,0,2,1,2,6520,16430,2873,10572,61,61,0,61,0.50,7.25,2.08,4.03
2016-09-07 06:30:00,2,7087,61,7.33,2,2,0,2,6132,8653,687,6914,61,62,0,61,4.00,10.25,1.70,7.58
2016-09-07 06:40:00,2,7640,61,3.50,2,2,0,2,5708,9636,1255,8048,61,61,0,61,1.10,6.90,1.64,3.28
2016-09-07 06:50:00,2,11699,58,0.76,2,2,0,2,7953,14967,2297,12130,51,61,4,61,0.45,1.20,0.24,0.68
2016-09-07 07:00:00,2,10763,59,1.73,2,2,0,2,7757,16137,2493,10575,52,61,4,61,0.85,3.10,0.63,1.62
2016-09-07 07:10:00,2,18318,58,0.53,2,2,0,2,9498,25691,5643,20769,51,61,5,61,0.10,2.50,0.68,0.28
2016-09-07 07:20:00,2,32146,53,0.08,2,2,0,2,16830,50000,10268,31568,51,61,4,51,0.00,0.20,0.06,0.05
2016-09-07 07:30:00,2,48956,53,0.06,2,2,0,2,44342,50000,1779,50000,41,61,10,61,0.00,0.25,0.08,0.00
2016-09-07 07:40:00,2,49557,18,0.02,2,2,0,2,48071,50000,650,50000,0,61,28,0,0.00,0.10,0.03,0.00
2016-09-07 07:50:00,2,45052,34,0.27,2,2,0,2,34446,50000,5717,46880,0,52,23,46,0.00,1.00,0.32,0.17
2016-09-07 08:00:00,2,21686,52,0.73,2,2,0,2,15745,33642,5132,20740,52,52,0,52,0.50,1.05,0.16,0.68
2016-09-07 08:10:00,2,19476,52,0.51,2,2,0,2,12626,25518,4327,19613,51,52,0,52,0.20,0.90,0.26,0.42
2016-09-07 08:20:00,2,23774,51,0.31,2,2,0,2,18940,29642,3646,23504,51,51,0,51,0.10,0.55,0.11,0.30
2016-09-07 08:30:00,2,23554,52,0.91,2,2,0,2,14218,31871,5124,23478,51,52,0,52,0.30,1.75,0.44,0.93
2016-09-07 08:40:00,2,30161,56,1.30,2,2,0,2,25031,40145,4612,29969,52,61,4,52,0.55,2.40,0.57,1.20
2016-09-07 08:50:00,2,20864,58,3.86,2,2,0,2,16002,26799,3545,19722,52,61,4,61,1.80,6.55,1.41,3.47
2016-09-07 09:00:00,2,19583,61,3.25,2,2,0,2,14584,24048,3322,19068,61,61,0,61,2.15,5.15,0.87,3.12
2016-09-07 09:10:00,2,28437,61,2.59,2,2,0,2,18515,40565,6018,28905,61,61,0,61,1.65,3.95,0.77,2.27
2016-09-07 09:20:00,2,34683,58,1.14,2,2,0,2,22274,50000,9185,33986,52,61,4,61,0.40,2.50,0.64,1.00
2016-09-07 09:30:00,2,46310,52,0.71,2,2,0,2,35345,50000,4441,47466,52,52,0,52,0.15,1.35,0.36,0.68
2016-09-07 09:40:00,2,29067,59,2.91,2,2,0,2,17526,47936,10173,25650,51,61,4,61,0.55,5.45,1.54,2.92
2016-09-07 09:50:00,2,20778,61,5.54,2,2,0,2,17163,25370,2194,20687,61,61,0,61,2.55,9.65,2.02,5.17
2016-09-07 10:00:00,2,26749,61,3.53,2,2,0,2,16358,42650,8485,24660,61,61,0,61,1.70,7.30,1.67,2.70
2016-09-07 10:10:00,2,24447,57,2.36,2,2,0,2,18064,34476,5727,23318,52,61,4,61,1.20,3.80,0.77,2.25
2016-09-07 10:20:00,2,15457,61,7.61,2,2,0,2,10993,19907,2823,15423,61,62,0,61,2.75,13.35,3.03,7.15
2016-09-07 10:30:00,2,16916,61,6.48,2,2,0,2,11449,23473,3047,17092,61,62,0,61,3.45,12.50,2.61,5.80
2016-09-07 10:40:00,2,18462,61,7.17,2,2,0,2,13892,25777,3421,17945,61,61,0,61,5.35,9.85,1.37,7.05
2016-09-07 10:50:00,2,25467,61,3.45,2,2,0,2,16451,33390,4685,24932,61,61,0,61,2.45,4.65,0.74,3.45
2016-09-07 11:00:00,2,23672,61,3.33,2,2,0,2,18049,28710,3866,24158,61,61,0,61,1.70,5.55,1.23,3.45
2016-09-07 11:10:00,2,18151,61,5.65,2,2,0,2,13059,24991,3190,17776,61,61,0,61,3.50,7.80,1.39,5.68
2016-09-07 11:20:00,2,10675,61,9.36,2,2,0,2,7870,15119,2539,9372,61,62,0,61,3.40,16.10,3.86,8.75
2016-09-07 11:30:00,2,14556,61,9.19,2,2,0,2,8729,19537,3563,15500,61,62,0,61,4.10,17.70,3.88,8.15
2016-09-07 11:40:00,2,25169,61,4.82,2,2,0,2,17254,34229,4781,25576,61,61,0,61,2.75,6.35,1.13,4.75
2016-09-07 11:50:00,2,35694,61,3.41,2,2,0,2,26175,49400,6222,35095,61,61,0,61,2.05,5.50,0.99,3.23
2016-09-07 12:00:00,2,32409,60,1.97,2,2,0,2,23723,50000,8203,30483,52,61,3,61,1.45,2.60,0.40,1.95
2016-09-07 12:10:00,2,42574,52,0.88,2,2,0,2,30979,50000,5986,43670,52,52,0,52,0.30,1.25,0.30,1.00
2016-09-07 12:20:00,2,49172,51,0.53,2,2,0,2,46662,50000,1161,50000,51,52,0,51,0.20,1.20,0.27,0.42
2016-09-07 12:30:00,2,44282,60,1.52,2,2,0,2,33339,50000,5993,46215,51,61,3,61,0.65,4.00,0.94,1.20
2016-09-07 12:40:00,2,32785,60,1.39,2,2,0,2,22346,46101,8056,32009,52,61,3,61,0.90,2.10,0.36,1.43
2016-09-07 12:50:00,2,27913,52,0.88,2,2,0,2,20294,38918,5306,27583,52,52,0,52,0.60,1.10,0.17,0.90
2016-09-07 13:00:00,2,24707,52,0.89,2,2,0,2,18270,37207,5652,23450,52,52,0,52,0.40,1.35,0.32,0.80
2016-09-07 13:10:00,2,38116,45,0.21,2,2,0,2,22319,48579,8789,39415,0,52,15,51,0.00,0.50,0.21,0.10
2016-09-07 13:20:00,2,37741,0,0.00,2,2,0,2,21425,50000,10930,42434,0,0,0,0,0.00,0.00,0.00,0.00
2016-09-07 13:30:00,2,24145,0,0.00,2,2,0,2,18222,30638,3630,23984,0,0,0,0,0.00,0.00,0.00,0.00
2016-09-07 13:40:00,2,34791,0,0.00,2,2,0,2,28317,41462,4289,35604,0,0,0,0,0.00,0.00,0.00,0.00
2016-09-07 13:50:00,2,41250,0,0.00,2,2,0,2,32255,50000,5296,41298,0,0,0,0,0.00,0.00,0.00,0.00
2016-09-07 14:00:00,2,49784,0,0.00,2,2,0,2,48045,50000,583,50000,0,0,0,0,0.00,0.00,0.00,0.00
2016-09-07 14:10:00,2,50000,0,0.00,2,2,0,2,50000,50000,0,50000,0,0,0,0,0.00,0.00,0.00,0.00
2016-09-07 14:20:00,2,49590,4,0.01,2,2,0,2,46755,50000,979,50000,0,40,12,0,0.00,0.15,0.05,0.00
2016-09-07 14:30:00,2,50000,50,0.07,2,2,0,2,50000,50000,0,50000,40,51,3,51,0.00,0.15,0.04,0.08
2016-09-07 14:40:00,2,49961,51,0.21,2,2,0,2,49688,50000,94,50000,51,51,0,51,0.05,0.40,0.11,0.20
2016-09-07 14:50:00,2,49947,52,0.45,0,2,1,2,49467,50000,160,50000,51,52,0,52,0.30,0.70,0.13,0.40
2016-09-07 15:00:00,2,33375,52,0.49,2,2,0,2,22423,50000,8384,31918,51,52,0,52,0.20,0.70,0.14,0.55
2016-09-07 15:10:00,2,33051,51,0.36,2,2,0,2,20204,50000,10635,28190,51,51,0,51,0.05,0.85,0.24,0.28
2016-09-07 15:20:00,2,28504,51,0.34,2,2,0,2,18109,34558,4748,30142,51,51,0,51,0.20,0.55,0.10,0.33
2016-09-07 15:30:00,2,47198,51,0.19,2,2,0,2,36183,50000,4646,49342,51,51,0,51,0.05,0.40,0.09,0.17
2016-09-07 15:40:00,2,49656,52,1.04,2,2,0,2,48127,50000,691,50000,51,52,0,52,0.10,2.00,0.77,1.00
2016-09-07 15:50:00,2,48605,54,1.48,2,2,0,2,45581,50000,1744,50000,52,61,4,52,0.45,2.55,0.73,1.60
2016-09-07 16:00:00,2,46439,52,1.20,2,2,0,2,35740,50000,5132,50000,52,52,0,52,0.30,2.95,0.78,1.00
2016-09-07 16:10:00,2,14969,59,7.48,2,2,0,2,10868,31697,6352,11674,52,62,4,61,2.55,13.40,2.91,7.45
2016-09-07 16:20:00,2,15160,61,5.27,2,2,0,2,10988,20225,3369,13668,61,61,0,61,2.35,7.25,1.55,5.62
2016-09-07 16:30:00,2,15416,61,9.16,2,2,0,2,12453,18387,1765,15427,61,62,0,61,5.85,13.55,2.37,8.33
2016-09-07 16:40:00,2,18942,61,3.90,2,2,0,2,16421,23795,2110,18450,61,61,0,61,1.50,7.15,1.83,3.48
2016-09-07 16:50:00,2,19714,52,1.35,2,2,0,2,17065,22792,1662,19768,52,52,0,52,0.70,2.15,0.53,1.35
2016-09-07 17:00:00,2,32706,51,0.31,2,2,0,2,19765,42321,7205,31730,51,52,0,51,0.00,0.85,0.24,0.28
2016-09-07 17:10:00,2,48218,20,0.02,2,2,0,2,45300,50000,1871,48881,0,51,25,0,0.00,0.20,0.06,0.00
2016-09-07 17:20:00,2,50000,0,0.00,2,2,0,2,50000,50000,0,50000,0,0,0,0,0.00,0.00,0.00,0.00
2016-09-07 17:30:00,2,50000,0,0.00,2,2,0,2,50000,50000,0,50000,0,0,0,0,0.00,0.00,0.00,0.00
2016-09-07 17:40:00,2,48303,26,0.98,2,2,0,2,40358,50000,2933,50000,0,61,27,20,0.00,5.30,1.74,0.12
2016-09-07 17:50:00,2,32546,61,4.35,2,2,0,2,21878,50000,9430,29894,61,61,0,61,2.75,6.85,1.07,4.38
2016-09-07 18:00:00,2,33336,61,1.99,2,2,0,2,21069,42595,6370,34940,61,61,0,61,1.05,2.95,0.54,1.82
2016-09-07 18:10:00,2,33521,57,1.15,2,2,0,2,27840,43134,5579,30894,52,61,4,61,0.80,1.50,0.26,1.18
2016-09-07 18:20:00,2,27267,56,0.77,2,2,0,2,24230,32157,2213,26980,52,61,4,52,0.30,1.05,0.21,0.80
2016-09-07 18:30:00,2,43013,53,0.24,2,2,0,2,33050,50000,5851,44224,51,61,4,51,0.05,0.55,0.18,0.15
2016-09-07 18:40:00,2,44157,40,0.06,2,2,0,2,35342,50000,4358,44888,0,51,20,51,0.00,0.15,0.05,0.05
2016-09-07 18:50:00,2,46791,0,0.00,2,2,0,2,39479,50000,3658,48230,0,0,0,0,0.00,0.00,0.00,0.00
2016-09-07 19:00:00,2,50000,0,0.00,2,2,0,2,50000,50000,0,50000,0,0,0,0,0.00,0.00,0.00,0.00
2016-09-07 19:10:00,2,50000,0,0.00,2,2,0,2,50000,50000,0,50000,0,0,0,0,0.00,0.00,0.00,0.00
2016-09-07 19:20:00,2,50000,0,0.00,2,2,0,2,50000,50000,0,50000,0,0,0,0,0.00,0.00,0.00,0.00
2016-09-07 19:30:00,2,50000,0,0.00,2,2,0,2,50000,50000,0,50000,0,0,0,0,0.00,0.00,0.00,0.00
2016-09-07 19:40:00,2,50000,0,0.00,2,2,0,2,50000,50000,0,50000,0,0,0,0,0.00,0.00,0.00,0.00
2016-09-07 19:50:00,2,50000,0,0.00,2,2,0,2,50000,50000,0,50000,0,0,0,0,0.00,0.00,0.00,0.00
2016-09-07 20:00:00,2,50000,0,0.00,2,2,0,2,50000,50000,0,50000,0,0,0,0,0.00,0.00,0.00,0.00
2016-09-07 20:10:00,2,50000,0,0.00,2,2,0,2,50000,50000,0,50000,0,0,0,0,0.00,0.00,0.00,0.00
2016-09-07 20:20:00,2,50000,0,0.00,2,2,0,2,50000,50000,0,50000,0,0,0,0,0.00,0.00,0.00,0.00
2016-09-07 20:30:00,2,50000,0,0.00,2,2,0,2,50000,50000,0,50000,0,0,0,0,0.00,0.00,0.00,0.00
2016-09-07 20:40:00,2,50000,0,0.00,2,2,0,2,50000,50000,0,50000,0,0,0,0,0.00,0.00,0.00,0.00
2016-09-07 20:50:00,2,48876,8,0.07,2,2,0,2,44298,50000,1789,49847,0,40,16,0,0.00,0.45,0.15,0.00
2016-09-07 21:00:00,2,46939,57,1.17,2,2,0,2,40735,50000,3089,47567,51,61,5,61,0.70,2.25,0.50,0.98
2016-09-07 21:10:00,2,43161,61,1.69,2,2,0,2,34291,50000,5347,42580,61,61,0,61,0.50,3.65,0.84,1.60
2016-09-07 21:20:00,2,32951,61,1.95,2,2,0,2,27972,48817,5750,31374,61,61,0,61,0.80,3.35,0.67,1.98
2016-09-07 21:30:00,2,25779,61,1.84,2,2,0,2,22040,33103,3480,24522,61,61,0,61,0.70,3.00,0.71,1.98
2016-09-07 21:40:00,2,23514,56,0.76,2,2,0,2,19602,28003,2452,24029,52,61,4,52,0.45,1.25,0.27,0.70
2016-09-07 21:50:00,2,36028,55,0.42,2,2,0,2,25661,48191,6007,34508,51,61,5,52,0.20,0.65,0.13,0.42
2016-09-07 22:00:00,2,42374,51,0.45,2,2,0,2,31782,49159,5227,42888,51,51,0,51,0.05,0.90,0.25,0.50
2016-09-07 22:10:00,2,45994,54,0.30,2,2,0,2,40164,50000,3418,46302,51,61,5,51,0.15,0.75,0.18,0.25
2016-09-07 22:20:00,2,37275,54,0.65,2,2,0,2,31608,43493,3575,37084,51,61,4,52,0.20,1.20,0.36,0.57
2016-09-07 22:30:00,2,38200,51,0.38,2,2,0,2,30058,48549,6053,35946,51,51,0,51,0.15,0.65,0.16,0.35
2016-09-07 22:40:00,2,41022,51,0.35,2,2,0,2,31276,45927,4375,42258,51,51,0,51,0.15,0.55,0.11,0.33
2016-09-07 22:50:00,2,44341,51,0.21,2,2,0,2,31649,50000,5125,45738,51,51,0,51,0.00,0.55,0.18,0.20
2016-09-07 23:00:00,2,49914,37,0.02,2,2,0,2,49522,50000,174,50000,0,51,19,41,0.00,0.10,0.03,0.00
2016-09-07 23:10:00,2,48289,45,0.12,2,2,0,2,42907,50000,2322,49481,0,61,23,51,0.00,0.40,0.16,0.03
2016-09-07 23:20:00,2,47932,51,0.29,2,2,0,2,40546,50000,2849,49115,51,51,0,51,0.05,0.65,0.20,0.25
2016-09-07 23:30:00,2,49356,51,0.13,2,2,0,2,45493,50000,1411,50000,51,51,0,51,0.05,0.30,0.07,0.10
2016-09-07 23:40:00,2,50000,41,0.06,2,2,0,2,50000,50000,0,50000,0,51,14,41,0.00,0.15,0.05,0.05
2016-09-07 23:50:00,2,50000,0,0.00,2,2,0,2,50000,50000,0,50000,0,0,0,0,0.00,0.00,0.00,0.00
